Lugano Airport LSZA

Flugplatz Daten

Name: Lugano Airport

Ident: LSZA

Lat: 46,00429916

Long: 8,910579681

Platzhöhe: 915 ft

IataCode: LUG

City: Lugano

Metar

2022/08/10 20:20
LSZA 102020Z AUTO 36002KT 9999 FEW080 SCT///CB 23/16 Q1019

Taf

Gewünschte Webcam nicht vorhanden? Dann fügen Sie eine hinzu. Sie wird dann so schnell wie möglich freigeschaltet
Url: Title: